Regional Weather Roundup
Issued by NWS

Home | Current Version | Previous Version | Text Only | Print | Product List | Glossary Off
Versions: 1 2 3 4 5 6 7 8 9 10 11 12 13 14 15 16 17 18 19 20 21 22 23 24 25 26 27 28 29 30 31 32 33 34 35 36 37 38 39 40 41 42 43 44 45 46 47 48 49 50

000
ASUS45 KBOU 292010
RWRCO

WEATHER ROUNDUP FOR COLORADO
NATIONAL WEATHER SERVICE DENVER/BOULDER CO
200 PM MDT THU SEP 29 2016

NOTE: "FAIR" INDICATES FEW OR NO CLOUDS BELOW 12000 FEET WITH NO
SIGNIFICANT WEATHER AND/OR OBSTRUCTIONS TO VISIBILITY.

COZ001>005-013-030-031-292100-
...NORTHWEST COLORADO...

CITY           SKY/WX    TMP DP  RH WIND       PRES   REMARKS
CRAIG          CLOUDY    65  47  52 W20       30.42S
HAYDEN         FAIR      66  39  37 W17       30.41F
MEEKER         LGT RAIN  58  53  84 VRB5      30.44S
MOUNT WERNER   NOT AVBL
STEAMBOAT SPGS FAIR      67  42  40 SW10G17   30.41F
WALDEN           N/A     72  28  20 S8G18     30.44F
$$

COZ006>008-011-292100-
...WEST CENTRAL VALLEYS...

CITY           SKY/WX    TMP DP  RH WIND       PRES   REMARKS
GRAND JUNCTION CLOUDY    60  58  92 W6        30.37F
MONTROSE       CLOUDY    64  46  52 NW12      30.42F
EAGLE          CLOUDY    72  34  25 SW12G21   30.41F
RIFLE          CLOUDY    65  50  58 W25       30.38F
DELTA          CLOUDY    68  53  57 S3        30.39F
NUCLA          LGT RAIN  59  54  82 N3        30.47F
$$

COZ017>023-064>068-292100-
...SOUTHWEST COLORADO...

CITY           SKY/WX    TMP DP  RH WIND       PRES   REMARKS
DURANGO        LGT RAIN  59  48  67 VRB5      30.50F
CORTEZ         LGT RAIN  63  46  54 SW7       30.45S
PAGOSA SPRINGS LGT RAIN  61  37  41 CALM      30.56S
TELLURIDE      CLOUDY    55  38  52 SE7       30.60F
WOLF CREEK PAS CLOUDY    43  30  61 SW14      30.78F
$$

COZ009-010-012-014-032>034-037-058>063-292100-
...CENTRAL COLORADO...

CITY           SKY/WX    TMP DP  RH WIND       PRES   REMARKS
ASPEN          CLOUDY    63  33  32 N7        30.47S
BUENA VISTA    PTSUNNY   70  26  19 SE15G23   30.46F
COPPER MTN     CLOUDY    59  23  25 S8        30.73F
BERTHOUD PASS  CLOUDY    46  34  61 E6G16     30.75F
COTTONWOOD PAS CLOUDY    64  21  19 SW10G16   30.59F
GUNNISON       FAIR      66  34  30 NW3       30.47F
KREMMLING      FAIR      73  21  14 W9        30.41F
LEADVILLE      PTSUNNY   59  24  26 W8        30.57F
MONARCH PASS   CLOUDY    50  27  40 SW17      30.84F
SALIDA         FAIR      74  26  16 S10       30.51F
SUNLIGHT       CLOUDY    54  39  58 S5        30.68F
WILKERSON PASS FAIR      59  23  25 SW9G18    30.71F
$$

COZ069>075-292100-
...SAN LUIS VALLEY/SANGRE DE CRISTO MOUNTAINS...

CITY           SKY/WX    TMP DP  RH WIND       PRES   REMARKS
ALAMOSA        FAIR      71  30  21 S12G18    30.47F
LA VETA PASS   FAIR      64  28  25 MISG      30.63F
SAGUACHE       NOT AVBL
$$

COZ035-036-038>040-292100-
...NORTHERN COLORADO FRONT RANGE...

CITY           SKY/WX    TMP DP  RH WIND       PRES   REMARKS
DENVER INTL AP FAIR      82  37  20 NE13      30.27F
DMNS CITY PARK   N/A     80  38  22 NE7G15    30.26F
AURORA         MOSUNNY   83  36  18 N9        30.27F
FRONT RANGE AP MOSUNNY   86  36  16 N7G20     30.28F
ERIE MUNI ARPT FAIR      78  36  22 N8        30.27F
BOULDER MUN AP FAIR      75  37  25 N5        30.29F
CENTENNIAL     FAIR      82  34  17 N12       30.28F
BROOMFIELD     PTSUNNY   77  37  24 NE6       30.31F
FORT COLLINS   FAIR      75  39  27 S5        30.26F
LONGMONT       FAIR      78  40  25 CALM      30.29F
$$

COZ041-046-047-076>085-087-088-292100-
...PIKES PEAK/PALMER DIVIDE AND SOUTHERN FOOTHILLS...

CITY           SKY/WX    TMP DP  RH WIND       PRES   REMARKS
COLO. SPRINGS  PTSUNNY   75  36  24 SE16      30.38F
A. F. ACADEMY  FAIR      74  38  27 S8        30.38F
SCHRIEVER AFB  NOT AVBL
ELLICOTT       NOT AVBL
FALCON         FAIR      73  32  22 S15G22    30.43F
FORT CARSON    FAIR      77  36  22 SE10      30.35F
LIMON          FAIR      78  36  21 S20G26    30.34F
MONUMENT HILL  FAIR      73  32  21 S21G28    30.41F
TRINIDAD       FAIR      79  22  12 SE9       30.36F
$$

COZ042>045-048>051-090-091-292100-
...NORTHEAST COLORADO...

CITY           SKY/WX    TMP DP  RH WIND       PRES   REMARKS
GREELEY ARPT   FAIR      77  41  27 SE7       30.28F
AKRON          FAIR      78  39  24 SE23G32   30.30F
BURLINGTON     FAIR      76  39  26 S21       30.34F
WRAY           NOT AVBL
STERLING       FAIR      81  41  24 S16G22    30.26F
HOLYOKE        FAIR      79  43  27 SE16G26   30.31F
FORT MORGAN    FAIR      83  36  18 SE15      30.26F
$$

COZ086-089-092>099-292100-
...SOUTHEAST COLORADO...

CITY           SKY/WX    TMP DP  RH WIND       PRES   REMARKS
PUEBLO         FAIR      79  40  24 SE8       30.29F
LA JUNTA       FAIR      81  39  22 S8        30.29F
LAMAR          FAIR      82  42  24 S13G21    30.28F
SPRINGFIELD      N/A     74  45  35 S15       30.35F
$$



USA.gov is the U.S. government's official web portal to all federal, state and local government web resources and services.